User: anonymous   Login
Location: Walton
(43.6794°N, 81.3017°W)
Time: 17:32:19
(UTC+00:00)
Language:

SL-08 ROCKET BODY - Orbit

View from above orbital plane
View from above orbital plane
View from above satellite
View from above satellite

Ground track
Ground track

The orbit is defined by the following mean orbital elements,

1 28522U          26039.29954111 +.00000000 +00000-0 +84467-4 0 00007
2 28522  82.9468 119.7470 0044255 238.7371 120.9455 13.90046069    02
Epoch (UTC): 08 February 2026 07:11:20
Eccentricity: 0.0044255
inclination: 82.9468°
perigee height: 896 km
apogee height: 961 km
right ascension of ascending node: 119.7470°
argument of perigee: 238.7371°
revolutions per day: 13.90046069
mean anomaly at epoch: 120.9455°

The dashed part of the orbit path shows where the satellite is in the earth's shadow,  

DLR